"Pseudo-MPEC" for Cassini

Created 2017 Nov 10 22:09:54 UT using Find_Orb

Astrometry:
     Cassini  C1999 08 18.51899 23 28 23.37 -05 04 56.9          16.2  m     422
     Cassini  C1999 08 18.52503 23 28 21.35 -05 04 57.3          16.7  m     422
     Cassini  C1999 08 18.54081 23 28 15.69 -05 04 56.6          16.5  m     422
     Cassini  C1999 08 18.57286 23 28 03.14 -05 04 51.7          17.0  m     422
     Cassini  C1999 08 18.58419 23 27 58.51 -05 04 48.9          16.4  m     422
     Cassini  C1999 08 18.59442 23 27 54.32 -05 04 45.8          16.7  m     422
     Cassini  C1999 08 19.72619 23 29 03.21 -05 01 06.4          19.0  m     422
     Cassini  C1999 08 19.73325 23 29 02.24 -05 01 04.8          19.2  m     422
     Cassini  C1999 08 19.74565 23 29 00.47 -05 01 02.1          19.0  m     422
     Cassini  C1999 08 19.77046 23 28 57.46 -05 00 56.8          19.1  m     422
     Cassini  C1999 08 19.77853 23 28 56.63 -05 00 55.2          19.1  m     422
     Cassini  C1999 08 20.66391 23 29 34.89 -05 00 47.0          19.1 Rc     413
     Cassini  C1999 08 20.66724 23 29 34.49 -05 00 47.2          19.4 Rc     413
     Cassini  C1999 08 20.67062 23 29 34.06 -05 00 47.0          19.4 Rc     413
     Cassini  C1999 08 20.69003 23 29 31.66 -05 00 46.5          19.4 Rc     413

Station data:
(413) Siding Spring Observatory  (S31.277054 E149.066080)  Australia/NSW.
   Observer R. H. McNaught. 1.0m f/8 reflector + CCD.
(422) Loomberah  (S31.334630 E151.046100)  Australia/NSW.  Observer G. J.
   Garradd. 0.45-m f/5.4 reflector + CCD.

Orbital elements:  Cassini
   Perihelion 1999 Jul 16.401093 +/- 0.00539 TT =  9:37:34 (JD 2451375.901093)
Epoch 1999 Aug 20.0 TT = JDT 2451410.5   Earth MOID: 0.0000   Ju: 0.0007
M   4.24430 +/- 0.014               Ma: 0.0252                Auto-Find
n   0.12267153 +/- 0.000399         Peri.  131.94723 +/- 0.0018
a   4.01150054 +/- 0.00871          Node   144.74722 +/- 0.00041
e   0.7844574 +/- 0.000483          Incl.    0.71419 +/- 0.00029
P   8.03                   H 27.5   G  0.15   U  7.5  
q 0.86464900 +/- 6.13e-5    Q 7.15835208 +/- 0.0175
From 15 observations 1999 Aug. 18-20; mean residual 0".220
Residuals in arcseconds: 
990818 422 .063+ .096+    990818 422 .052+ .112-    990819 422 5.1m+ .126-    
990818 422 .044+ .135-    990819 422 .384- .322-    990820 413 .077+ .237+    
990818 422 .202- .093+    990819 422 .669+ .020-    990820 413 .293+ .044-    
990818 422 .055+ .095+    990819 422 .054- .249+    990820 413 .124+ .062+    
990818 422 .021- .044-    990819 422 .154- .160+    990820 413 .542- .214-    

Ephemerides (geocentric):
Date (UTC)   RA              Dec         delta   r     elong  mag " sig PA
---- -- --  ------------   ------------  ------ ------ -----  --- ---- ---
1999 08 21  23 29 39.356   -05 03 11.37  .02647 1.0361 156.4 20.8  .11 125
1999 08 22  23 29 43.265   -05 02 38.73  .03575 1.0447 157.4 21.4  .14 109
1999 08 23  23 29 43.035   -05 02 32.78  .04503 1.0533 158.3 21.9  .17 102
1999 08 24  23 29 40.282   -05 02 42.27  .05434 1.0621 159.3 22.3  .18  98
1999 08 25  23 29 35.722   -05 03 02.26  .06366 1.0711 160.3 22.6  .19  96
1999 08 26  23 29 29.739   -05 03 30.09  .07302 1.0801 161.3 22.9  .20  94
1999 08 27  23 29 22.578   -05 04 04.11  .08240 1.0893 162.3 23.1  .21  93
1999 08 28  23 29 14.410   -05 04 43.13  .09182 1.0985 163.3 23.4  .21  93
1999 08 29  23 29 05.372   -05 05 26.28  .10128 1.1079 164.3 23.6  .21  93
1999 08 30  23 28 55.581   -05 06 12.77  .11079 1.1173 165.3 23.7  .20  93
1999 08 31  23 28 45.145   -05 07 01.93  .12034 1.1268 166.3 23.9  .19  94
1999 09 01  23 28 34.170   -05 07 53.12  .12994 1.1365 167.3 24.0  .18  95
1999 09 02  23 28 22.759   -05 08 45.71  .13960 1.1462 168.3 24.2  .17  96
1999 09 03  23 28 11.018   -05 09 39.08  .14933 1.1560 169.3 24.3  .16  98
1999 09 04  23 27 59.056   -05 10 32.59  .15912 1.1658 170.3 24.4  .14 101
1999 09 05  23 27 46.980   -05 11 25.64  .16898 1.1757 171.3 24.5  .13 104
1999 09 06  23 27 34.898   -05 12 17.59  .17892 1.1857 172.3 24.6  .11 109
1999 09 07  23 27 22.917   -05 13 07.86  .18894 1.1958 173.3 24.7  .09 117
1999 09 08  23 27 11.140   -05 13 55.84  .19905 1.2059 174.3 24.8  .08 127
1999 09 09  23 26 59.666   -05 14 41.00  .20924 1.2161 175.3 24.9  .07 141
1999 09 10  23 26 48.586   -05 15 22.80  .21952 1.2263 176.2 25.0  .06 158
1999 09 11  23 26 37.986   -05 16 00.77  .22991 1.2366 177.1 25.0  .06 177
1999 09 12  23 26 27.941   -05 16 34.47  .24039 1.2469 177.9 25.1  .07  14
1999 09 13  23 26 18.521   -05 17 03.52  .25097 1.2573 178.4 25.2  .07  26
1999 09 14  23 26 09.788   -05 17 27.56  .26167 1.2677 178.4 25.3  .08  35
1999 09 15  23 26 01.794   -05 17 46.29  .27247 1.2781 177.8 25.4  .09  42
1999 09 16  23 25 54.588   -05 17 59.44  .28338 1.2886 177.0 25.6  .10  47
1999 09 17  23 25 48.212   -05 18 06.77  .29441 1.2992 176.1 25.7  .11  51
1999 09 18  23 25 42.702   -05 18 08.09  .30555 1.3097 175.2 25.9  .12  54
1999 09 19  23 25 38.092   -05 18 03.20  .31682 1.3203 174.2 26.0  .12  57
1999 09 20  23 25 34.407   -05 17 51.97  .32820 1.3309 173.2 26.1  .12  59
1999 09 21  23 25 31.673   -05 17 34.27  .33971 1.3416 172.3 26.3  .12  61
1999 09 22  23 25 29.908   -05 17 10.00  .35135 1.3522 171.3 26.4  .11  64
1999 09 23  23 25 29.129   -05 16 39.06  .36311 1.3629 170.3 26.5  .10  67
1999 09 24  23 25 29.347   -05 16 01.42  .37501 1.3736 169.4 26.6  .09  70
1999 09 25  23 25 30.572   -05 15 17.03  .38704 1.3844 168.4 26.7  .08  75
1999 09 26  23 25 32.811   -05 14 25.86  .39920 1.3951 167.5 26.8  .07  82
1999 09 27  23 25 36.070   -05 13 27.89  .41149 1.4059 166.5 26.9  .05  95
1999 09 28  23 25 40.354   -05 12 23.13  .42392 1.4167 165.6 27.0  .03 124
1999 09 29  23 25 45.670   -05 11 11.55  .43650 1.4275 164.6 27.1  .04 169
1999 09 30  23 25 52.026   -05 09 53.14  .44921 1.4383 163.7 27.2  .06  20
1999 10 01  23 25 59.431   -05 08 27.87  .46207 1.4491 162.7 27.3  .09  33
1999 10 02  23 26 07.896   -05 06 55.71  .47507 1.4599 161.8 27.4  .12  41
1999 10 03  23 26 17.433   -05 05 16.61  .48821 1.4707 160.9 27.5  .16  45
1999 10 04  23 26 28.054   -05 03 30.55  .50150 1.4816 159.9 27.6  .21  48
1999 10 05  23 26 39.772   -05 01 37.47  .51494 1.4924 159.0 27.7  .26  50
1999 10 06  23 26 52.596   -04 59 37.35  .52853 1.5033 158.1 27.8  .31  52
1999 10 07  23 27 06.536   -04 57 30.15  .54227 1.5141 157.2 27.9  .37  53
1999 10 08  23 27 21.600   -04 55 15.87  .55616 1.5250 156.3 28.0  .43  54
1999 10 09  23 27 37.792   -04 52 54.48  .57021 1.5358 155.3 28.1  .50  55
1999 10 10  23 27 55.114   -04 50 25.99  .58440 1.5467 154.4 28.2  .57  56
1999 10 11  23 28 13.566   -04 47 50.43  .59874 1.5575 153.5 28.2  .64  57
1999 10 12  23 28 33.144   -04 45 07.83  .61324 1.5684 152.6 28.3  .72  57
1999 10 13  23 28 53.844   -04 42 18.21  .62788 1.5793 151.8 28.4  .81  58
1999 10 14  23 29 15.658   -04 39 21.65  .64268 1.5901 150.9 28.5  .89  58
1999 10 15  23 29 38.576   -04 36 18.21  .65763 1.6010 150.0 28.5  .99  59
1999 10 16  23 30 02.587   -04 33 07.95  .67273 1.6118 149.1 28.6  1.1  59
1999 10 17  23 30 27.677   -04 29 50.97  .68798 1.6226 148.2 28.7  1.2  59
1999 10 18  23 30 53.833   -04 26 27.34  .70338 1.6335 147.4 28.8  1.3  60
1999 10 19  23 31 21.039   -04 22 57.17  .71892 1.6443 146.5 28.8  1.4  60
1999 10 20  23 31 49.279   -04 19 20.56  .73462 1.6551 145.6 28.9  1.5  60
1999 10 21  23 32 18.534   -04 15 37.62  .75046 1.6659 144.8 29.0  1.6  61
1999 10 22  23 32 48.785   -04 11 48.46  .76645 1.6767 143.9 29.1  1.8  61
1999 10 23  23 33 20.014   -04 07 53.21  .78258 1.6875 143.1 29.1  1.9  61
1999 10 24  23 33 52.199   -04 03 51.97  .79886 1.6983 142.2 29.2  2.0  61
1999 10 25  23 34 25.322   -03 59 44.89  .81529 1.7091 141.4 29.3  2.2  61
1999 10 26  23 34 59.363   -03 55 32.07  .83186 1.7199 140.6 29.3  2.3  62
1999 10 27  23 35 34.304   -03 51 13.64  .84857 1.7306 139.7 29.4  2.4  62
1999 10 28  23 36 10.130   -03 46 49.69  .86542 1.7414 138.9 29.5  2.6  62
1999 10 29  23 36 46.827   -03 42 20.32  .88242 1.7521 138.1 29.5  2.7  62
1999 10 30  23 37 24.382   -03 37 45.62  .89956 1.7628 137.2 29.6  2.9  62
1999 10 31  23 38 02.785   -03 33 05.66  .91684 1.7735 136.4 29.6  3.0  62
1999 11 01  23 38 42.026   -03 28 20.52  .93426 1.7842 135.6 29.7  3.2  62
1999 11 02  23 39 22.095   -03 23 30.26  .95183 1.7949 134.8 29.8  3.4  62
1999 11 03  23 40 02.984   -03 18 34.94  .96953 1.8056 134.0 29.8  3.5  63
1999 11 04  23 40 44.682   -03 13 34.64  .98737 1.8163 133.2 29.9  3.7  63
1999 11 05  23 41 27.181   -03 08 29.41  1.0053 1.8269 132.4 29.9  3.9  63
1999 11 06  23 42 10.469   -03 03 19.33  1.0235 1.8375 131.6 30.0  4.0  63
1999 11 07  23 42 54.535   -02 58 04.46  1.0417 1.8482 130.8 30.0  4.2  63
1999 11 08  23 43 39.369   -02 52 44.89  1.0601 1.8588 130.0 30.1  4.4  63
1999 11 09  23 44 24.958   -02 47 20.69  1.0786 1.8694 129.2 30.2  4.6  63
1999 11 10  23 45 11.289   -02 41 51.94  1.0972 1.8799 128.4 30.2  4.8  63
1999 11 11  23 45 58.349   -02 36 18.71  1.1160 1.8905 127.6 30.3  5.0  63
1999 11 12  23 46 46.124   -02 30 41.11  1.1349 1.9010 126.8 30.3  5.2  63
1999 11 13  23 47 34.600   -02 24 59.21  1.1539 1.9116 126.0 30.4  5.4  63
1999 11 14  23 48 23.762   -02 19 13.12  1.1730 1.9221 125.2 30.4  5.6  63
1999 11 15  23 49 13.595   -02 13 22.91  1.1923 1.9326 124.5 30.5  5.8  63
1999 11 16  23 50 04.083   -02 07 28.69  1.2116 1.9431 123.7 30.5  6.0  64
1999 11 17  23 50 55.212   -02 01 30.56  1.2311 1.9535 122.9 30.6  6.2  64
1999 11 18  23 51 46.965   -01 55 28.61  1.2507 1.9640 122.1 30.6  6.4  64
1999 11 19  23 52 39.327   -01 49 22.94  1.2704 1.9744 121.4 30.7  6.6  64
1999 11 20  23 53 32.282   -01 43 13.66  1.2902 1.9848 120.6 30.7  6.8  64
1999 11 21  23 54 25.813   -01 37 00.87  1.3102 1.9952 119.8 30.8  7.0  64
1999 11 22  23 55 19.905   -01 30 44.67  1.3302 2.0056 119.1 30.8  7.2  64
1999 11 23  23 56 14.543   -01 24 25.16  1.3503 2.0160 118.3 30.8  7.5  64
1999 11 24  23 57 09.713   -01 18 02.45  1.3706 2.0263 117.6 30.9  7.7  64
